Location: Baix
(44.7118°N, 4.7648°E)
Time: 03:12:53
(UTC+00:00)

COSMOS 2428 - Pass Details

Date: 07 August 2020
Orbit: 844 x 859 km, 70.9° (Epoch: 27 September)

Event Time Altitude Azimuth Distance (km) Brightness Sun altitude
Rises 00:21:11 0° 333° (NNW) 3,432 6.6 -28.4°
Reaches altitude 10° 00:23:39 10° 333° (NNW) 2,494 5.8 -28.4°
Enters shadow 00:29:08 80° 293° (WNW) 875 2.6 -28.2°
